SCP
0 0 0 0 0 0 0 0 0 0 0 0 0 0 0 0 0 0 0 0 0 0 -0 -0 -0 -0 0 0 0 0 0 0 0 0 0 0 0 0 1 1 1 0 0 0
0 0 0 0 0 0 0 0 0 0 0 0 0 0 0 0 0 0 0 0 0 0 0 0 -0 -0 0 0 0 -0 -0 0 0 0 0 0 0 1 1 1 1 0 0 0
0 0 0 0 0 0 0 0 0 0 0 0 0 0 0 0 0 0 0 0 0 0 0 0 0 0 0 0 0 -0 -0 -0 0 0 0 0 0 0 1 1 1 0 0 0
0 0 0 0 0 0 0 0 0 0 -0 0 0 0 0 0 0 0 0 0 0 0 0 0 0 0 0 0 0 0 -0 0 0 0 0 0 0 0 1 1 0 0 0 0
0 0 0 0 0 0 0 0 0 0 0 0 0 0 0 0 0 0 0 0 0 0 0 0 0 0 0 0 0 -0 -0 0 -0 0 0 0 0 0 1 0 0 0 0 0
0 0 0 0 0 0 0 0 0 0 0 0 0 0 0 0 0 0 0 0 0 0 0 0 0 0 0 0 0 0 -0 0 -0 -0 -0 0 0 0 0 0 0 0 0 0
0 0 0 0 0 0 0 0 0 0 0 0 0 0 0 0 0 0 0 0 0 0 0 0 0 0 0 0 0 0 -0 0 0 0 -0 0 0 0 0 0 0 0 0 0
0 0 0 0 0 0 0 0 0 0 0 0 0 0 0 0 0 0 0 0 0 0 0 0 0 0 0 0 0 0 0 -0 -0 0 0 0 0 0 0 0 0 0 0 0
0 0 0 0 0 0 0 0 0 0 0 0 0 0 0 0 0 0 0 0 0 0 0 0 0 0 0 0 0 0 0 0 0 -0 0 0 -0 -0 0 0 0 0 0 0
0 0 0 0 0 0 0 0 0 0 0 0 0 0 0 0 0 0 0 0 0 0 0 0 0 0 0 0 0 0 0 0 0 0 -0 -0 -0 -0 0 0 0 0 0 0
0 0 0 0 0 0 0 0 0 0 0 0 0 0 0 0 0 0 0 0 0 0 0 0 0 0 0 0 -0 -0 -0 -0 0 0 -0 -0 -0 -0 -0 -0 0 0 0 0
0 0 0 0 0 0 0 0 0 0 0 0 0 0 0 0 0 0 0 0 0 0 0 0 0 0 0 0 0 -0 -0 -0 -0 -0 0 0 0 -0 0 -0 -0 -0 -0 0
0 0 0 0 0 0 0 0 0 0 0 0 0 0 0 0 0 0 0 0 0 0 0 0 0 0 0 0 0 -0 -0 -0 -0 0 0 0 -0 -0 0 0 0 0 0 0
0 0 0 0 0 0 0 0 0 0 0 0 0 0 0 0 0 0 0 0 0 0 0 0 0 0 0 0 0 -0 -0 -0 -0 -0 0 0 0 -0 -0 -0 -0 -0 -0 -0
0 0 0 0 0 0 0 0 0 -0 0 0 0 0 0 0 0 0 0 0 0 0 0 0 0 0 0 0 0 0 -0 -0 -0 -0 0 -0 -0 -0 0 0 0 0 0 0
0 0 0 0 0 0 0 0 0 0 -0 -0 0 -0 0 0 0 0 0 0 0 0 0 0 0 0 0 0 0 -0 -0 -0 -0 -0 -0 -0 -0 -0 0 0 0 -0 0 -0
0 0 0 0 0 0 0 0 0 0 0 0 0 0 0 0 0 0 0 0 0 0 0 0 0 0 0 0 0 -0 -0 -0 -0 -0 -0 0 0 0 0 0 0 0 0 0
0 0 0 0 0 0 0 0 0 0 0 -0 0 0 0 0 0 0 0 -0 0 0 0 0 0 0 0 0 0 -0 -0 -0 -0 -0 -0 -0 0 0 0 0 0 0 -0 -0
0 0 0 0 0 0 0 0 0 0 0 -0 -0 -0 0 0 0 0 0 -0 -0 0 0 0 0 0 0 0 0 -0 -0 -0 -0 -0 -0 -0 0 0 -0 -0 -0 -0 -0 -0
0 0 0 0 0 0 0 0 0 0 0 0 -0 0 0 0 0 0 0 -0 -0 0 0 0 0 0 0 0 0 0 -0 0 0 -0 -0 -0 -0 -0 0 -0 0 -0 -0 -0
0 0 0 0 0 0 0 0 0 0 0 0 0 0 0 0 0 0 0 0 0 0 0 0 0 0 0 0 0 0 -0 -0 -0 -0 -0 -0 0 0 0 0 0 0 0 0
0 0 0 0 0 0 0 0 0 0 0 0 0 0 0 0 0 0 0 0 -0 -0 0 0 0 0 0 0 0 0 0 -0 -0 -0 0 0 0 0 0 0 0 0 0 0
0 0 0 0 0 0 0 0 0 0 0 0 0 0 0 0 0 0 0 0 0 -0 0 0 0 0 0 0 0 0 0 0 0 0 0 0 0 0 0 0 0 0 0 0
0 0 0 0 0 0 0 0 0 0 0 0 0 0 0 0 0 0 0 0 0 0 0 0 0 0 0 0 0 0 0 0 0 0 0 0 0 0 0 0 0 0 0 0
0 0 0 0 0 0 0 0 0 0 0 0 0 0 0 0 0 0 0 0 0 0 0 0 0 0 0 0 0 0 0 0 0 0 0 0 0 0 0 0 0 0 0 0
0 0 0 0 0 0 0 0 0 0 0 0 0 0 0 0 0 0 0 0 0 0 0 0 0 0 0 0 0 0 0 0 0 0 0 0 0 0 0 0 0 0 0 0
Wind_Speed_500mb
3 7 7 10 3 5 9 4 3 4 1 10 9 18 14 9 8 11 14 21 27 31 36 41 47 49 46 48 54 55 59 56 51 49 44 38 39 38 53 59 61 50 49 69
6 8 10 15 10 7 4 2 4 8 6 7 14 26 17 15 10 10 16 22 25 29 35 39 53 58 52 56 62 69 56 54 51 44 43 31 29 34 44 53 53 54 33 53
5 9 19 9 10 8 5 4 3 6 12 5 20 11 10 11 20 18 22 21 20 25 34 37 42 56 65 65 66 65 63 46 42 34 32 27 32 27 41 42 45 47 43 41
4 9 10 8 6 9 5 8 5 3 11 7 9 8 8 12 15 18 20 18 22 26 29 36 39 51 62 72 72 62 66 46 30 21 18 25 32 30 34 39 45 45 48 40
6 15 12 8 3 8 4 6 2 2 4 9 4 4 2 5 12 16 15 12 15 22 27 34 40 45 58 65 80 71 71 47 24 21 10 22 30 28 30 30 33 40 36 42
5 0 4 1 5 2 12 6 4 2 3 6 5 4 7 10 10 7 10 10 13 19 25 32 40 43 49 61 70 74 82 59 38 30 19 17 23 26 31 25 29 36 49 41
5 5 2 3 6 4 6 5 3 4 5 4 6 7 14 9 14 10 9 10 11 14 21 31 41 48 49 55 61 77 74 62 52 49 34 25 23 25 35 32 37 25 24 29
12 8 14 10 5 4 10 5 4 8 4 4 4 11 4 4 9 13 12 13 10 11 15 23 32 40 44 43 51 56 67 74 60 65 63 55 53 44 51 57 51 59 64 66
11 5 5 2 2 3 8 8 4 5 1 6 5 11 17 10 14 19 19 17 14 9 8 17 26 32 38 41 42 47 53 61 64 80 78 76 84 84 87 89 84 85 84 82
10 6 2 5 4 5 7 10 5 2 5 8 7 11 12 16 28 24 23 26 17 9 5 10 19 26 30 34 34 36 43 53 56 62 67 72 75 77 80 86 88 85 81 77
9 2 6 5 17 16 9 7 4 4 6 5 7 8 9 18 21 30 33 28 20 12 7 4 11 19 26 27 29 32 36 39 44 52 58 64 68 69 74 77 78 73 67 64
10 6 9 7 3 2 3 8 16 7 9 5 4 13 10 12 11 25 32 31 25 18 12 4 3 11 16 20 24 27 32 36 40 38 42 49 47 52 59 61 53 57 54 52
16 6 5 3 4 5 11 14 11 6 1 15 8 7 5 9 14 22 31 34 34 27 20 13 6 3 10 15 19 24 26 34 35 35 36 40 41 44 47 47 46 49 50 48
14 6 8 6 6 8 11 22 30 21 9 8 21 8 13 21 22 26 33 35 37 35 30 23 16 10 9 12 16 21 25 30 31 34 36 40 43 44 45 46 46 45 44 44
5 9 6 8 6 7 8 13 31 39 33 20 7 23 23 27 31 42 43 37 39 42 40 34 28 20 16 15 17 20 24 28 30 31 35 39 38 39 40 41 41 40 40 40
5 3 2 7 4 10 13 29 29 41 41 47 45 61 39 49 34 32 42 46 46 47 49 42 36 31 25 22 21 24 26 27 30 31 37 37 34 34 34 35 34 34 35 36
15 12 8 7 5 6 16 29 48 35 29 47 36 43 10 9 32 43 46 52 59 58 57 52 47 37 34 30 27 28 31 31 32 32 34 33 32 30 30 30 28 30 32 31
12 9 3 2 3 13 10 3 12 43 40 46 35 34 23 25 27 35 47 60 66 65 63 58 54 46 40 38 36 33 33 34 34 33 31 30 28 25 25 25 26 28 27 26
11 11 6 8 11 18 29 12 17 20 19 52 55 55 40 16 8 36 52 53 61 67 65 63 56 50 47 45 43 40 38 37 34 32 31 30 28 24 24 24 25 26 25 21
12 2 9 7 10 15 6 6 10 8 23 27 51 40 29 28 14 18 38 66 57 57 63 69 62 55 51 50 50 47 44 40 38 34 32 30 27 27 27 25 23 22 20 17
14 9 26 15 15 17 17 16 20 9 9 11 34 35 46 25 22 5 17 48 63 55 64 69 67 62 56 53 54 53 49 44 39 38 37 33 30 30 29 26 24 21 18 15
28 26 14 9 15 31 29 18 19 6 3 15 23 35 53 46 35 23 13 28 62 63 66 74 73 68 59 56 57 56 54 48 44 41 41 36 32 31 29 27 24 22 19 15
17 16 15 28 18 4 60 12 49 14 14 19 24 29 33 39 44 38 35 20 51 65 69 73 77 72 64 61 59 60 55 53 49 46 43 39 37 34 31 27 25 23 20 16
13 11 9 7 22 36 41 63 49 43 25 21 25 24 31 32 34 40 38 38 39 68 66 76 81 79 73 67 61 58 57 55 51 49 48 43 39 36 35 31 26 23 21 19
12 31 20 14 20 17 45 69 71 69 48 37 31 30 30 31 28 34 42 41 42 57 67 77 85 84 78 70 64 59 61 59 56 52 50 47 43 40 37 33 29 26 24 21
20 14 21 22 30 16 14 30 66 69 69 77 53 41 36 35 32 31 36 42 44 49 65 75 85 87 83 75 67 64 67 64 60 56 56 52 47 45 43 37 33 30 28 25
Wind_Direction_500mb
45 213 171 128 93 75 111 144 252 259 324 310 253 273 299 228 281 341 343 337 344 355 4 4 2 4 356 2 352 340 334 325 313 302 290 275 252 236 225 224 234 237 238 226
175 196 140 128 127 119 135 164 256 277 243 295 288 283 275 218 264 283 307 314 326 331 337 351 3 5 5 1 356 1 341 326 307 298 286 259 232 224 217 223 231 232 239 229
227 114 148 153 157 179 186 203 201 291 325 250 306 263 206 223 251 269 277 293 317 335 342 346 359 6 6 8 1 358 349 339 310 293 277 237 213 202 206 216 225 225 229 228
116 139 169 167 197 203 240 189 176 314 331 299 349 294 232 226 256 261 276 301 323 339 352 355 359 1 8 10 9 1 357 356 330 312 275 211 193 205 199 208 216 222 227 223
120 166 170 196 220 188 81 150 166 347 285 304 172 256 192 213 255 239 244 283 319 339 353 356 6 12 6 12 13 11 7 12 12 359 319 197 187 196 195 201 209 219 225 228
96 138 223 74 102 74 133 140 94 88 267 251 117 320 238 198 201 191 221 271 311 342 355 1 8 8 13 13 15 19 22 22 49 51 39 151 183 180 189 198 203 211 220 217
162 188 160 174 149 136 196 210 305 256 220 280 148 248 269 224 213 207 218 258 299 335 358 4 10 11 16 20 19 22 25 36 50 78 98 131 159 173 155 166 184 181 186 185
192 214 185 169 244 235 192 245 237 273 274 329 142 235 255 238 220 218 234 255 277 316 3 9 15 16 16 22 24 27 35 37 54 78 89 109 120 146 132 136 140 131 129 128
170 164 107 57 136 277 159 205 50 107 83 278 216 249 246 201 210 221 228 247 254 281 358 13 20 24 21 25 30 30 39 49 54 66 81 96 107 114 113 112 117 113 110 111
179 132 220 133 137 70 268 141 134 209 241 256 228 266 246 209 217 214 224 231 235 250 321 17 20 28 32 31 37 44 44 48 53 64 75 83 92 98 102 108 107 107 109 109
156 206 142 174 206 185 160 208 191 299 244 259 292 243 199 195 197 199 208 218 218 213 234 11 35 29 36 37 45 52 60 59 60 59 65 80 82 87 89 96 97 100 104 107
179 130 179 185 102 313 253 234 191 224 195 243 323 270 171 202 202 199 195 201 207 208 215 196 24 51 48 50 59 62 68 73 75 74 71 81 81 84 89 97 98 105 109 113
181 205 145 188 182 186 220 199 204 120 115 208 186 250 166 214 215 203 195 194 197 201 209 204 194 108 77 72 74 81 82 85 85 89 94 101 105 108 106 108 110 110 110 113
156 189 232 214 95 123 200 199 199 197 193 196 232 259 216 218 211 197 200 196 197 196 204 203 198 184 133 107 100 100 99 100 100 103 102 101 102 103 104 105 106 109 111 114
217 234 216 247 203 194 223 208 199 210 214 216 246 237 241 215 209 204 201 192 196 198 204 204 197 191 170 146 130 123 118 117 115 114 113 109 107 107 108 110 111 111 111 108
190 242 169 277 240 232 256 237 226 226 233 247 259 278 264 244 230 201 196 191 199 203 205 204 200 191 182 166 153 143 136 133 127 127 122 118 117 114 112 109 110 111 104 96
166 159 173 251 340 303 270 224 211 216 219 224 234 241 217 187 213 216 203 198 203 206 206 202 203 193 186 174 164 156 148 144 138 138 131 128 126 125 122 116 109 103 98 93
168 162 205 200 258 245 251 136 191 218 237 217 239 244 219 225 218 233 217 210 209 210 207 205 201 194 186 181 172 169 161 154 150 147 145 141 136 135 129 122 119 108 101 97
206 160 175 207 215 310 291 186 183 186 261 215 223 241 232 213 240 249 230 221 220 216 210 206 204 195 188 184 178 179 175 168 165 163 161 157 155 149 139 137 132 122 113 104
170 284 229 155 224 235 262 155 170 165 277 205 205 225 201 171 226 244 222 214 211 213 211 205 201 197 193 189 184 185 185 183 179 176 174 171 168 164 158 153 140 129 120 111
165 190 216 203 236 275 242 157 144 171 256 164 191 200 172 191 206 202 202 201 208 206 200 201 200 199 196 194 190 190 191 192 188 186 183 181 179 176 171 164 156 149 136 122
173 175 187 183 221 254 157 124 196 200 199 176 175 184 192 204 199 202 183 192 197 200 196 197 200 201 200 199 198 195 195 192 196 194 191 189 189 188 184 175 169 166 159 151
205 195 179 192 209 247 188 208 202 200 196 191 191 196 199 211 214 210 212 205 200 198 200 197 200 203 203 204 204 202 195 197 198 199 198 196 194 194 193 191 185 183 180 173
229 197 223 134 219 234 224 228 230 234 240 223 205 200 201 211 216 212 213 210 201 200 201 200 200 205 204 207 207 204 201 201 201 203 202 203 203 203 201 200 200 200 199 191
180 161 189 259 270 274 250 238 238 237 233 234 220 211 211 209 215 214 210 206 201 204 204 204 204 206 207 209 209 205 203 205 205 205 206 209 208 208 209 208 209 209 211 208
180 169 195 227 213 197 250 254 243 232 234 227 219 209 216 217 218 217 214 212 208 209 209 208 208 208 208 211 210 207 207 208 209 207 208 211 214 213 213 215 221 223 220 223
Wind_Speed_850mb
3 7 7 10 3 5 9 4 3 4 1 10 9 18 14 9 8 11 14 21 27 31 36 41 47 49 46 48 54 55 59 56 51 49 44 38 39 38 53 59 61 50 49 69
6 8 10 15 10 7 4 2 4 8 6 7 14 26 17 15 10 10 16 22 25 29 35 39 53 58 52 56 62 69 56 54 51 44 43 31 29 34 44 53 53 54 33 53
5 9 19 9 10 8 5 4 3 6 12 5 20 11 10 11 20 18 22 21 20 25 34 37 42 56 65 65 66 65 63 46 42 34 32 27 32 27 41 42 45 47 43 41
4 9 10 8 6 9 5 8 5 3 11 7 9 8 8 12 15 18 20 18 22 26 29 36 39 51 62 72 72 62 66 46 30 21 18 25 32 30 34 39 45 45 48 40
6 15 12 8 3 8 4 6 2 2 4 9 4 4 2 5 12 16 15 12 15 22 27 34 40 45 58 65 80 71 71 47 24 21 10 22 30 28 30 30 33 40 36 42
5 0 4 1 5 2 12 6 4 2 3 6 5 4 7 10 10 7 10 10 13 19 25 32 40 43 49 61 70 74 82 59 38 30 19 17 23 26 31 25 29 36 49 41
5 5 2 3 6 4 6 5 3 4 5 4 6 7 14 9 14 10 9 10 11 14 21 31 41 48 49 55 61 77 74 62 52 49 34 25 23 25 35 32 37 25 24 29
12 8 14 10 5 4 10 5 4 8 4 4 4 11 4 4 9 13 12 13 10 11 15 23 32 40 44 43 51 56 67 74 60 65 63 55 53 44 51 57 51 59 64 66
11 5 5 2 2 3 8 8 4 5 1 6 5 11 17 10 14 19 19 17 14 9 8 17 26 32 38 41 42 47 53 61 64 80 78 76 84 84 87 89 84 85 84 82
10 6 2 5 4 5 7 10 5 2 5 8 7 11 12 16 28 24 23 26 17 9 5 10 19 26 30 34 34 36 43 53 56 62 67 72 75 77 80 86 88 85 81 77
9 2 6 5 17 16 9 7 4 4 6 5 7 8 9 18 21 30 33 28 20 12 7 4 11 19 26 27 29 32 36 39 44 52 58 64 68 69 74 77 78 73 67 64
10 6 9 7 3 2 3 8 16 7 9 5 4 13 10 12 11 25 32 31 25 18 12 4 3 11 16 20 24 27 32 36 40 38 42 49 47 52 59 61 53 57 54 52
16 6 5 3 4 5 11 14 11 6 1 15 8 7 5 9 14 22 31 34 34 27 20 13 6 3 10 15 19 24 26 34 35 35 36 40 41 44 47 47 46 49 50 48
14 6 8 6 6 8 11 22 30 21 9 8 21 8 13 21 22 26 33 35 37 35 30 23 16 10 9 12 16 21 25 30 31 34 36 40 43 44 45 46 46 45 44 44
5 9 6 8 6 7 8 13 31 39 33 20 7 23 23 27 31 42 43 37 39 42 40 34 28 20 16 15 17 20 24 28 30 31 35 39 38 39 40 41 41 40 40 40
5 3 2 7 4 10 13 29 29 41 41 47 45 61 39 49 34 32 42 46 46 47 49 42 36 31 25 22 21 24 26 27 30 31 37 37 34 34 34 35 34 34 35 36
15 12 8 7 5 6 16 29 48 35 29 47 36 43 10 9 32 43 46 52 59 58 57 52 47 37 34 30 27 28 31 31 32 32 34 33 32 30 30 30 28 30 32 31
12 9 3 2 3 13 10 3 12 43 40 46 35 34 23 25 27 35 47 60 66 65 63 58 54 46 40 38 36 33 33 34 34 33 31 30 28 25 25 25 26 28 27 26
11 11 6 8 11 18 29 12 17 20 19 52 55 55 40 16 8 36 52 53 61 67 65 63 56 50 47 45 43 40 38 37 34 32 31 30 28 24 24 24 25 26 25 21
12 2 9 7 10 15 6 6 10 8 23 27 51 40 29 28 14 18 38 66 57 57 63 69 62 55 51 50 50 47 44 40 38 34 32 30 27 27 27 25 23 22 20 17
14 9 26 15 15 17 17 16 20 9 9 11 34 35 46 25 22 5 17 48 63 55 64 69 67 62 56 53 54 53 49 44 39 38 37 33 30 30 29 26 24 21 18 15
28 26 14 9 15 31 29 18 19 6 3 15 23 35 53 46 35 23 13 28 62 63 66 74 73 68 59 56 57 56 54 48 44 41 41 36 32 31 29 27 24 22 19 15
17 16 15 28 18 4 60 12 49 14 14 19 24 29 33 39 44 38 35 20 51 65 69 73 77 72 64 61 59 60 55 53 49 46 43 39 37 34 31 27 25 23 20 16
13 11 9 7 22 36 41 63 49 43 25 21 25 24 31 32 34 40 38 38 39 68 66 76 81 79 73 67 61 58 57 55 51 49 48 43 39 36 35 31 26 23 21 19
12 31 20 14 20 17 45 69 71 69 48 37 31 30 30 31 28 34 42 41 42 57 67 77 85 84 78 70 64 59 61 59 56 52 50 47 43 40 37 33 29 26 24 21
20 14 21 22 30 16 14 30 66 69 69 77 53 41 36 35 32 31 36 42 44 49 65 75 85 87 83 75 67 64 67 64 60 56 56 52 47 45 43 37 33 30 28 25
Wind_Direction_850mb
45 213 171 128 93 75 111 144 252 259 324 310 253 273 299 228 281 341 343 337 344 355 4 4 2 4 356 2 352 340 334 325 313 302 290 275 252 236 225 224 234 237 238 226
175 196 140 128 127 119 135 164 256 277 243 295 288 283 275 218 264 283 307 314 326 331 337 351 3 5 5 1 356 1 341 326 307 298 286 259 232 224 217 223 231 232 239 229
227 114 148 153 157 179 186 203 201 291 325 250 306 263 206 223 251 269 277 293 317 335 342 346 359 6 6 8 1 358 349 339 310 293 277 237 213 202 206 216 225 225 229 228
116 139 169 167 197 203 240 189 176 314 331 299 349 294 232 226 256 261 276 301 323 339 352 355 359 1 8 10 9 1 357 356 330 312 275 211 193 205 199 208 216 222 227 223
120 166 170 196 220 188 81 150 166 347 285 304 172 256 192 213 255 239 244 283 319 339 353 356 6 12 6 12 13 11 7 12 12 359 319 197 187 196 195 201 209 219 225 228
96 138 223 74 102 74 133 140 94 88 267 251 117 320 238 198 201 191 221 271 311 342 355 1 8 8 13 13 15 19 22 22 49 51 39 151 183 180 189 198 203 211 220 217
162 188 160 174 149 136 196 210 305 256 220 280 148 248 269 224 213 207 218 258 299 335 358 4 10 11 16 20 19 22 25 36 50 78 98 131 159 173 155 166 184 181 186 185
192 214 185 169 244 235 192 245 237 273 274 329 142 235 255 238 220 218 234 255 277 316 3 9 15 16 16 22 24 27 35 37 54 78 89 109 120 146 132 136 140 131 129 128
170 164 107 57 136 277 159 205 50 107 83 278 216 249 246 201 210 221 228 247 254 281 358 13 20 24 21 25 30 30 39 49 54 66 81 96 107 114 113 112 117 113 110 111
179 132 220 133 137 70 268 141 134 209 241 256 228 266 246 209 217 214 224 231 235 250 321 17 20 28 32 31 37 44 44 48 53 64 75 83 92 98 102 108 107 107 109 109
156 206 142 174 206 185 160 208 191 299 244 259 292 243 199 195 197 199 208 218 218 213 234 11 35 29 36 37 45 52 60 59 60 59 65 80 82 87 89 96 97 100 104 107
179 130 179 185 102 313 253 234 191 224 195 243 323 270 171 202 202 199 195 201 207 208 215 196 24 51 48 50 59 62 68 73 75 74 71 81 81 84 89 97 98 105 109 113
181 205 145 188 182 186 220 199 204 120 115 208 186 250 166 214 215 203 195 194 197 201 209 204 194 108 77 72 74 81 82 85 85 89 94 101 105 108 106 108 110 110 110 113
156 189 232 214 95 123 200 199 199 197 193 196 232 259 216 218 211 197 200 196 197 196 204 203 198 184 133 107 100 100 99 100 100 103 102 101 102 103 104 105 106 109 111 114
217 234 216 247 203 194 223 208 199 210 214 216 246 237 241 215 209 204 201 192 196 198 204 204 197 191 170 146 130 123 118 117 115 114 113 109 107 107 108 110 111 111 111 108
190 242 169 277 240 232 256 237 226 226 233 247 259 278 264 244 230 201 196 191 199 203 205 204 200 191 182 166 153 143 136 133 127 127 122 118 117 114 112 109 110 111 104 96
166 159 173 251 340 303 270 224 211 216 219 224 234 241 217 187 213 216 203 198 203 206 206 202 203 193 186 174 164 156 148 144 138 138 131 128 126 125 122 116 109 103 98 93
168 162 205 200 258 245 251 136 191 218 237 217 239 244 219 225 218 233 217 210 209 210 207 205 201 194 186 181 172 169 161 154 150 147 145 141 136 135 129 122 119 108 101 97
206 160 175 207 215 310 291 186 183 186 261 215 223 241 232 213 240 249 230 221 220 216 210 206 204 195 188 184 178 179 175 168 165 163 161 157 155 149 139 137 132 122 113 104
170 284 229 155 224 235 262 155 170 165 277 205 205 225 201 171 226 244 222 214 211 213 211 205 201 197 193 189 184 185 185 183 179 176 174 171 168 164 158 153 140 129 120 111
165 190 216 203 236 275 242 157 144 171 256 164 191 200 172 191 206 202 202 201 208 206 200 201 200 199 196 194 190 190 191 192 188 186 183 181 179 176 171 164 156 149 136 122
173 175 187 183 221 254 157 124 196 200 199 176 175 184 192 204 199 202 183 192 197 200 196 197 200 201 200 199 198 195 195 192 196 194 191 189 189 188 184 175 169 166 159 151
205 195 179 192 209 247 188 208 202 200 196 191 191 196 199 211 214 210 212 205 200 198 200 197 200 203 203 204 204 202 195 197 198 199 198 196 194 194 193 191 185 183 180 173
229 197 223 134 219 234 224 228 230 234 240 223 205 200 201 211 216 212 213 210 201 200 201 200 200 205 204 207 207 204 201 201 201 203 202 203 203 203 201 200 200 200 199 191
180 161 189 259 270 274 250 238 238 237 233 234 220 211 211 209 215 214 210 206 201 204 204 204 204 206 207 209 209 205 203 205 205 205 206 209 208 208 209 208 209 209 211 208
180 169 195 227 213 197 250 254 243 232 234 227 219 209 216 217 218 217 214 212 208 209 209 208 208 208 208 211 210 207 207 208 209 207 208 211 214 213 213 215 221 223 220 223